Weather in Ust-Ocheya

Russia / Arkhangel'skaya Oblast'     62°24′40″N   48°36′46″E
temp.,
°C
wind,
m/s
gust,
m/s
humid.,
%
clouds,
%
prec.,
mm/h
press.,
hPa
HPBL,
m
24 september, fri
fri2400:00+4se3119025 0.0 1021215
03:00+6se3983100 0.0 1020262
06:00+6se4118548 0.0 1019364
09:00+7se41383100 0.1 1018634
12:00+7ese41388100 0.1 1018638
15:00+7ese41390100 0.9 1017688
18:00+7se41194100 0.6 1016744
21:00+7se41096100 0.7 1016617
25 september, sat
sat2500:00+7se41097100 1.2 1015550
03:00+6se4998100 4.6 1014433
06:00+6se3998100 1.1 1014597
09:00+7se3998100 1.3 1014539
12:00+7se3898100 1.1 1014506
15:00+7se3998100 2.0 1014576
18:00+7se4998100 1.8 1014572
21:00+7se41098100 3.1 1014635
26 september, sun
sun2600:00+7se3998100 0.3 1014540
03:00+6se3896100 0.7 1014497
06:00+6ese3798100 0.3 1015423
09:00+6ese3797100 0.4 1015386
12:00+7e3797100 0.1 1016500
15:00+7e3796100 0.2 1018516
18:00+6e3797100 0.3 1020480
21:00+6e3897100 0.8 1021493
27 september, mon
mon2700:00+6e4996100 0.3 1022530
03:00+6e3796100 0.3 1024729
06:00+5e3893100 0.1 1026576
09:00+5e3693100 0.1 1028615
12:00+6e358399 0.0 1029629
15:00+8e347281 0.0 1030975
18:00+4ne228684 0.0 103121
21:00+2e11885 0.0 103210
28 september, tue
tue2800:00+1nne118855 0.0 103210
03:00+1n1189100 0.0 103310
06:00+1nnw229188 0.0 103216
09:00+5nnw1284100 0.0 1032158
12:00+6nw2379100 0.0 1032366
15:00+6nw248873 0.0 1032272
18:00+6wnw1294100 0.0 103223
21:00+6wnw2394100 0.0 103274